| time (UTC) | temp F | wind direction | speed MPH | gust MPH | rain 1hr in | rain 24hr in | rain mn in | humidity % | barometer mb |
| 20260504035252 | 41 | 210 | 0.0 | 0.0 | 0.00 | 0.00 | 0.00 | 78 | 1010.1 |
| 20260504034753 | 41 | 210 | 0.0 | 0.0 | 0.00 | 0.00 | 0.00 | 78 | 1010.1 |
| 20260504034248 | 41 | 210 | 0.0 | 0.0 | 0.00 | 0.00 | 0.00 | 78 | 1010.1 |
| 20260504033249 | 42 | 210 | 0.0 | 0.0 | 0.00 | 0.00 | 0.00 | 77 | 1010.1 |
| 20260504032738 | 42 | 210 | 0.0 | 0.0 | 0.00 | 0.00 | 0.00 | 77 | 1010.1 |
| 20260504032239 | 42 | 210 | 0.0 | 0.0 | 0.00 | 0.00 | 0.00 | 76 | 1010.1 |
| 20260504031738 | 42 | 210 | 0.0 | 0.0 | 0.00 | 0.00 | 0.00 | 76 | 1010.1 |
| 20260504031230 | 42 | 210 | 0.0 | 0.0 | 0.00 | 0.00 | 0.00 | 76 | 1010.0 |
| 20260504030731 | 42 | 210 | 0.0 | 0.0 | 0.00 | 0.00 | 0.00 | 75 | 1010.0 |
| 20260504030231 | 42 | 210 | 0.0 | 0.0 | 0.00 | 0.00 | 0.00 | 75 | 1010.0 |
| 20260504025755 | 42 | 210 | 0.0 | 0.0 | 0.00 | 0.00 | 0.00 | 74 | 1010.0 |
| 20260504025724 | 42 | 210 | 0.0 | 0.0 | 0.00 | 0.00 | 0.00 | 74 | 1010.0 |
| 20260504025224 | 43 | 210 | 0.0 | 0.0 | 0.00 | 0.00 | 0.00 | 74 | 1010.0 |
| 20260504024724 | 42 | 210 | 0.0 | 0.0 | 0.00 | 0.00 | 0.00 | 73 | 1010.0 |
| 20260504024221 | 43 | 210 | 0.0 | 0.0 | 0.00 | 0.00 | 0.00 | 73 | 1010.0 |
| 20260504023721 | 43 | 210 | 0.0 | 0.0 | 0.00 | 0.00 | 0.00 | 73 | 1010.1 |
| 20260504023218 | 43 | 210 | 0.0 | 0.0 | 0.00 | 0.00 | 0.00 | 73 | 1010.0 |
| 20260504022906 | 43 | 210 | 0.0 | 0.0 | 0.00 | 0.00 | 0.00 | 72 | 1010.0 |
| 20260504022711 | 43 | 210 | 0.0 | 0.0 | 0.00 | 0.00 | 0.00 | 72 | 1010.0 |
| 20260504022207 | 43 | 210 | 0.0 | 0.0 | 0.00 | 0.00 | 0.00 | 72 | 1010.0 |
| 20260504021706 | 44 | 210 | 0.0 | 0.0 | 0.00 | 0.00 | 0.00 | 71 | 1010.0 |
| 20260504021202 | 44 | 210 | 0.0 | 0.0 | 0.00 | 0.00 | 0.00 | 71 | 1010.1 |
| 20260504020658 | 44 | 210 | 0.0 | 0.0 | 0.00 | 0.00 | 0.00 | 70 | 1010.1 |
| 20260504020159 | 44 | 210 | 0.0 | 0.0 | 0.00 | 0.00 | 0.00 | 70 | 1010.1 |
| 20260504015651 | 44 | 210 | 0.0 | 0.0 | 0.00 | 0.00 | 0.00 | 69 | 1010.0 |
| 20260504015152 | 45 | 210 | 0.0 | 0.0 | 0.00 | 0.00 | 0.00 | 69 | 1010.0 |
| 20260504014652 | 45 | 210 | 0.0 | 0.0 | 0.00 | 0.00 | 0.00 | 68 | 1010.0 |
| 20260504013145 | 46 | 210 | 0.0 | 0.0 | 0.00 | 0.00 | 0.00 | 66 | 1009.8 |
| 20260504012641 | 46 | 210 | 0.0 | 0.0 | 0.00 | 0.00 | 0.00 | 65 | 1009.7 |
| 20260504012141 | 46 | 210 | 0.0 | 0.0 | 0.00 | 0.00 | 0.00 | 64 | 1009.7 |
| 20260504011735 | 47 | 210 | 0.0 | 0.0 | 0.00 | 0.00 | 0.00 | 64 | 1009.7 |
| 20260504011642 | 47 | 210 | 0.0 | 0.0 | 0.00 | 0.00 | 0.00 | 64 | 1009.7 |
| 20260504011228 | 47 | 210 | 0.0 | 0.0 | 0.00 | 0.00 | 0.00 | 63 | 1009.6 |
| 20260504011137 | 47 | 210 | 0.0 | 0.0 | 0.00 | 0.00 | 0.00 | 63 | 1009.6 |
| 20260504010637 | 47 | 210 | 0.0 | 0.0 | 0.00 | 0.00 | 0.00 | 61 | 1009.6 |
| 20260504010138 | 47 | 210 | 0.0 | 0.0 | 0.00 | 0.00 | 0.00 | 59 | 1009.5 |
| 20260504005633 | 48 | 210 | 0.0 | 0.0 | 0.00 | 0.00 | 0.00 | 59 | 1009.4 |
| 20260504005134 | 48 | 210 | 0.0 | 0.0 | 0.00 | 0.00 | 0.00 | 58 | 1009.4 |
| 20260504004635 | 48 | 210 | 0.0 | 0.0 | 0.00 | 0.00 | 0.00 | 57 | 1009.3 |
| 20260504004131 | 49 | 210 | 0.0 | 0.0 | 0.00 | 0.00 | 0.00 | 54 | 1009.2 |
| 20260504003133 | 50 | 210 | 0.0 | 0.0 | 0.00 | 0.00 | 0.00 | 55 | 1009.1 |
| 20260504002722 | 50 | 210 | 0.0 | 0.0 | 0.00 | 0.00 | 0.00 | 55 | 1008.9 |
| 20260504002628 | 50 | 210 | 0.0 | 0.0 | 0.00 | 0.00 | 0.00 | 55 | 1008.9 |
| 20260504002129 | 50 | 210 | 0.0 | 0.0 | 0.00 | 0.00 | 0.00 | 54 | 1008.9 |
| 20260504001630 | 50 | 210 | 0.0 | 0.0 | 0.00 | 0.00 | 0.00 | 53 | 1008.8 |
| 20260504001126 | 51 | 210 | 0.0 | 0.0 | 0.00 | 0.00 | 0.00 | 52 | 1008.7 |
| 20260504000627 | 51 | 210 | 0.0 | 0.0 | 0.00 | 0.00 | 0.00 | 51 | 1008.7 |
| 20260504000118 | 52 | 210 | 0.0 | 0.0 | 0.00 | 0.00 | 0.00 | 50 | 1008.6 |
| 20260503235820 | 52 | 210 | 0.0 | 0.0 | 0.00 | 0.00 | 0.00 | 49 | 1008.6 |
| 20260503235613 | 52 | 210 | 0.0 | 0.0 | 0.00 | 0.00 | 0.00 | 49 | 1008.6 |
| 20260503235228 | 53 | 210 | 0.0 | 0.0 | 0.00 | 0.00 | 0.00 | 48 | 1008.5 |
| 20260503235114 | 53 | 210 | 0.0 | 0.0 | 0.00 | 0.00 | 0.00 | 48 | 1008.5 |
| 20260503234614 | 53 | 210 | 0.0 | 0.0 | 0.00 | 0.00 | 0.00 | 47 | 1008.5 |
| 20260503234109 | 54 | 210 | 0.0 | 0.0 | 0.00 | 0.00 | 0.00 | 46 | 1008.4 |
| 20260503233111 | 54 | 210 | 1.0 | 0.0 | 0.00 | 0.00 | 0.00 | 44 | 1008.3 |
| 20260503232607 | 55 | 356 | 0.0 | 0.0 | 0.00 | 0.00 | 0.00 | 43 | 1008.3 |
| 20260503232108 | 55 | 307 | 2.0 | 3.0 | 0.00 | 0.00 | 0.00 | 43 | 1008.3 |
| 20260503231058 | 56 | 153 | 4.0 | 0.0 | 0.00 | 0.00 | 0.00 | 41 | 1008.2 |
| 20260503230559 | 57 | 229 | 1.0 | 0.0 | 0.00 | 0.00 | 0.00 | 40 | 1008.1 |
| 20260503230100 | 57 | 330 | 3.0 | 0.0 | 0.00 | 0.00 | 0.00 | 39 | 1008.1 |
| 20260503225930 | 57 | 308 | 2.0 | 0.0 | 0.00 | 0.00 | 0.00 | 39 | 1008.1 |
| 20260503225555 | 57 | 308 | 2.0 | 0.0 | 0.00 | 0.00 | 0.00 | 39 | 1008.1 |
| 20260503225055 | 58 | 318 | 5.0 | 1.0 | 0.00 | 0.00 | 0.00 | 39 | 1008.1 |
| 20260503224048 | 58 | 332 | 0.0 | 2.0 | 0.00 | 0.00 | 0.00 | 37 | 1008.0 |
| 20260503223548 | 58 | 307 | 5.0 | 0.0 | 0.00 | 0.00 | 0.00 | 37 | 1007.9 |
| 20260503223049 | 58 | 205 | 0.0 | 0.0 | 0.00 | 0.00 | 0.00 | 37 | 1008.0 |
| 20260503222545 | 59 | 115 | 1.0 | 0.0 | 0.00 | 0.00 | 0.00 | 37 | 1008.0 |
| 20260503222347 | 59 | 318 | 1.0 | 3.0 | 0.00 | 0.00 | 0.00 | 38 | 1008.0 |
| 20260503222046 | 59 | 318 | 1.0 | 3.0 | 0.00 | 0.00 | 0.00 | 38 | 1008.0 |
| 20260503221546 | 59 | 193 | 1.0 | 0.0 | 0.00 | 0.00 | 0.00 | 36 | 1008.0 |
| 20260503221523 | 59 | 14 | 1.0 | 5.0 | 0.00 | 0.00 | 0.00 | 35 | 1008.0 |
| 20260503221040 | 59 | 14 | 1.0 | 5.0 | 0.00 | 0.00 | 0.00 | 35 | 1008.0 |
| 20260503220817 | 60 | 156 | 0.0 | 0.0 | 0.00 | 0.00 | 0.00 | 35 | 1007.9 |
| 20260503220530 | 60 | 156 | 0.0 | 0.0 | 0.00 | 0.00 | 0.00 | 35 | 1007.9 |
| 20260503220020 | 60 | 359 | 6.0 | 5.0 | 0.00 | 0.00 | 0.00 | 34 | 1007.9 |
| 20260503215526 | 60 | 359 | 6.0 | 5.0 | 0.00 | 0.00 | 0.00 | 34 | 1007.9 |
| 20260503215520 | 60 | 120 | 5.0 | 3.0 | 0.00 | 0.00 | 0.00 | 34 | 1008.0 |
| 20260503215026 | 60 | 120 | 5.0 | 3.0 | 0.00 | 0.00 | 0.00 | 34 | 1008.0 |
| 20260503215004 | 60 | 141 | 4.0 | 0.0 | 0.00 | 0.00 | 0.00 | 34 | 1007.8 |
| 20260503214526 | 60 | 141 | 4.0 | 0.0 | 0.00 | 0.00 | 0.00 | 34 | 1007.8 |
| 20260503214022 | 61 | 359 | 0.0 | 0.0 | 0.00 | 0.00 | 0.00 | 34 | 1007.9 |
| 20260503214019 | 61 | 23 | 3.0 | 6.0 | 0.00 | 0.00 | 0.00 | 34 | 1007.8 |
| 20260503213522 | 61 | 23 | 3.0 | 6.0 | 0.00 | 0.00 | 0.00 | 34 | 1007.8 |
| 20260503213505 | 61 | 187 | 4.0 | 6.0 | 0.00 | 0.00 | 0.00 | 35 | 1007.9 |
| 20260503213023 | 61 | 187 | 4.0 | 6.0 | 0.00 | 0.00 | 0.00 | 35 | 1007.9 |
| 20260503212520 | 61 | 284 | 0.0 | 0.0 | 0.00 | 0.00 | 0.00 | 34 | 1007.9 |
| 20260503212015 | 60 | 69 | 0.0 | 0.0 | 0.00 | 0.00 | 0.00 | 34 | 1007.9 |
| 20260503211514 | 60 | 170 | 4.0 | 0.0 | 0.00 | 0.00 | 0.00 | 34 | 1007.8 |
| 20260503210009 | 61 | 262 | 0.0 | 4.0 | 0.00 | 0.00 | 0.00 | 35 | 1007.9 |
| 20260503205005 | 60 | 221 | 4.0 | 7.0 | 0.00 | 0.00 | 0.00 | 35 | 1007.9 |
| 20260503204506 | 60 | 304 | 2.0 | 9.0 | 0.00 | 0.00 | 0.00 | 33 | 1007.9 |
| 20260503204000 | 60 | 359 | 7.0 | 5.0 | 0.00 | 0.00 | 0.00 | 34 | 1008.0 |
| 20260503203500 | 60 | 243 | 4.0 | 3.0 | 0.00 | 0.00 | 0.00 | 35 | 1008.1 |
| 20260503203000 | 60 | 266 | 7.0 | 8.0 | 0.00 | 0.00 | 0.00 | 33 | 1008.2 |
| 20260503202457 | 60 | 242 | 7.0 | 7.0 | 0.00 | 0.00 | 0.00 | 34 | 1008.2 |
| 20260503201957 | 59 | 221 | 0.0 | 5.0 | 0.00 | 0.00 | 0.00 | 35 | 1008.1 |
| 20260503201458 | 59 | 197 | 5.0 | 6.0 | 0.00 | 0.00 | 0.00 | 35 | 1008.3 |
| 20260503200952 | 60 | 21 | 4.0 | 8.0 | 0.00 | 0.00 | 0.00 | 34 | 1008.3 |
| 20260503200917 | 61 | 25 | 2.0 | 9.0 | 0.00 | 0.00 | 0.00 | 34 | 1008.3 |
| 20260503200553 | 61 | 25 | 2.0 | 9.0 | 0.00 | 0.00 | 0.00 | 34 | 1008.3 |
| 20260503200450 | 61 | 25 | 2.0 | 9.0 | 0.00 | 0.00 | 0.00 | 34 | 1008.3 |
| 20260503195951 | 61 | 18 | 3.0 | 5.0 | 0.00 | 0.00 | 0.00 | 34 | 1008.4 |
| 20260503195447 | 60 | 82 | 6.0 | 2.0 | 0.00 | 0.00 | 0.00 | 34 | 1008.4 |
| 20260503194947 | 60 | 359 | 4.0 | 3.0 | 0.00 | 0.00 | 0.00 | 35 | 1008.2 |
| 20260503194448 | 60 | 48 | 4.0 | 2.0 | 0.00 | 0.00 | 0.00 | 34 | 1008.4 |
| 20260503193945 | 60 | 60 | 6.0 | 5.0 | 0.00 | 0.00 | 0.00 | 36 | 1008.4 |
| 20260503193546 | 60 | 280 | 2.0 | 7.0 | 0.00 | 0.00 | 0.00 | 35 | 1008.5 |
| 20260503193445 | 60 | 280 | 2.0 | 7.0 | 0.00 | 0.00 | 0.00 | 35 | 1008.5 |
| 20260503192946 | 60 | 356 | 6.0 | 6.0 | 0.00 | 0.00 | 0.00 | 35 | 1008.6 |
| 20260503191944 | 60 | 359 | 5.0 | 4.0 | 0.00 | 0.00 | 0.00 | 35 | 1008.6 |
| 20260503191445 | 60 | 103 | 5.0 | 5.0 | 0.00 | 0.00 | 0.00 | 35 | 1008.7 |
| 20260503190940 | 60 | 257 | 7.0 | 1.0 | 0.00 | 0.00 | 0.00 | 35 | 1008.7 |
| 20260503190439 | 61 | 62 | 7.0 | 7.0 | 0.00 | 0.00 | 0.00 | 35 | 1008.6 |
| 20260503185438 | 61 | 30 | 6.0 | 7.0 | 0.00 | 0.00 | 0.00 | 36 | 1008.7 |
| 20260503184938 | 61 | 231 | 4.0 | 8.0 | 0.00 | 0.00 | 0.00 | 34 | 1008.8 |
| 20260503183935 | 60 | 174 | 3.0 | 3.0 | 0.00 | 0.00 | 0.00 | 36 | 1009.1 |
| 20260503183435 | 60 | 253 | 5.0 | 8.0 | 0.00 | 0.00 | 0.00 | 36 | 1009.1 |
| 20260503182935 | 59 | 218 | 3.0 | 5.0 | 0.00 | 0.00 | 0.00 | 37 | 1009.2 |
| 20260503182432 | 60 | 51 | 5.0 | 6.0 | 0.00 | 0.00 | 0.00 | 36 | 1009.1 |
| 20260503181931 | 60 | 59 | 2.0 | 2.0 | 0.00 | 0.00 | 0.00 | 37 | 1009.1 |
| 20260503181430 | 61 | 20 | 6.0 | 7.0 | 0.00 | 0.00 | 0.00 | 37 | 1009.2 |
| 20260503180923 | 60 | 158 | 4.0 | 3.0 | 0.00 | 0.00 | 0.00 | 37 | 1009.1 |
| 20260503175922 | 59 | 11 | 6.0 | 5.0 | 0.00 | 0.00 | 0.00 | 40 | 1009.2 |
| 20260503175419 | 58 | 66 | 6.0 | 8.0 | 0.00 | 0.00 | 0.00 | 37 | 1009.2 |
| 20260503174417 | 57 | 298 | 6.0 | 4.0 | 0.00 | 0.00 | 0.00 | 41 | 1009.3 |
| 20260503172916 | 57 | 66 | 7.0 | 5.0 | 0.00 | 0.00 | 0.00 | 39 | 1009.4 |
| 20260503172411 | 57 | 212 | 2.0 | 10.0 | 0.00 | 0.00 | 0.00 | 41 | 1009.5 |
| 20260503171911 | 57 | 59 | 4.0 | 8.0 | 0.00 | 0.00 | 0.00 | 41 | 1009.5 |
| 20260503171412 | 57 | 242 | 11.0 | 4.0 | 0.00 | 0.00 | 0.00 | 39 | 1009.5 |
| 20260503171236 | 57 | 229 | 5.0 | 9.0 | 0.00 | 0.00 | 0.00 | 42 | 1009.6 |
| 20260503170909 | 57 | 229 | 5.0 | 9.0 | 0.00 | 0.00 | 0.00 | 42 | 1009.6 |
| 20260503170409 | 57 | 319 | 4.0 | 3.0 | 0.00 | 0.00 | 0.00 | 41 | 1009.6 |
| 20260503150804 | 53 | 238 | 10.0 | 4.0 | 0.00 | 0.00 | 0.00 | 46 | 1010.4 |
| 20260503150640 | 53 | 266 | 1.0 | 2.0 | 0.00 | 0.00 | 0.00 | 47 | 1010.3 |
| 20260503150304 | 53 | 266 | 1.0 | 2.0 | 0.00 | 0.00 | 0.00 | 47 | 1010.3 |
| 20260503131235 | 54 | 60 | 5.0 | 3.0 | 0.00 | 0.00 | 0.00 | 49 | 1010.2 |
| 20260503130956 | 55 | 179 | 4.0 | 4.0 | 0.00 | 0.00 | 0.00 | 48 | 1010.3 |
| 20260503130731 | 55 | 179 | 4.0 | 4.0 | 0.00 | 0.00 | 0.00 | 48 | 1010.3 |
| 20260503130232 | 57 | 59 | 6.0 | 8.0 | 0.00 | 0.00 | 0.00 | 46 | 1010.3 |
| 20260503120214 | 50 | 174 | 5.0 | 1.0 | 0.00 | 0.00 | 0.00 | 58 | 1010.2 |
| 20260503110647 | 42 | 146 | 3.0 | 2.0 | 0.00 | 0.00 | 0.00 | 71 | 1009.7 |
| 20260503110148 | 42 | 73 | 0.0 | 4.0 | 0.00 | 0.00 | 0.00 | 71 | 1009.6 |
| 20260503100109 | 41 | 198 | 1.0 | 5.0 | 0.00 | 0.00 | 0.00 | 70 | 1008.7 |
| 20260503090510 | 42 | 15 | 5.0 | 0.0 | 0.00 | 0.00 | 0.00 | 68 | 1008.6 |
| 20260503090352 | 42 | 131 | 3.0 | 5.0 | 0.00 | 0.00 | 0.00 | 68 | 1008.5 |
| 20260503081432 | 43 | 60 | 6.0 | 7.0 | 0.00 | 0.00 | 0.00 | 65 | 1008.4 |
| 20260503081245 | 43 | 63 | 0.0 | 3.0 | 0.00 | 0.00 | 0.00 | 65 | 1008.3 |
| 20260503080932 | 43 | 63 | 0.0 | 3.0 | 0.00 | 0.00 | 0.00 | 65 | 1008.3 |
| 20260503080423 | 43 | 120 | 4.0 | 2.0 | 0.00 | 0.00 | 0.00 | 65 | 1008.3 |
| 20260503072912 | 43 | 153 | 4.0 | 1.0 | 0.00 | 0.00 | 0.00 | 64 | 1008.1 |
| 20260503072410 | 43 | 158 | 5.0 | 2.0 | 0.00 | 0.00 | 0.00 | 65 | 1008.1 |
| 20260503072107 | 43 | 146 | 3.0 | 1.0 | 0.00 | 0.00 | 0.00 | 66 | 1008.2 |
| 20260503071901 | 43 | 146 | 3.0 | 1.0 | 0.00 | 0.00 | 0.00 | 66 | 1008.2 |
| 20260503071701 | 44 | 170 | 1.0 | 0.0 | 0.00 | 0.00 | 0.00 | 66 | 1008.2 |
| 20260503071358 | 44 | 170 | 1.0 | 0.0 | 0.00 | 0.00 | 0.00 | 66 | 1008.2 |
| 20260503070723 | 44 | 153 | 0.0 | 0.0 | 0.00 | 0.00 | 0.00 | 66 | 1008.2 |
| 20260503070347 | 44 | 153 | 0.0 | 0.0 | 0.00 | 0.00 | 0.00 | 66 | 1008.2 |
| 20260503060321 | 44 | 15 | 1.0 | 1.0 | 0.00 | 0.00 | 0.00 | 63 | 1008.3 |
| 20260503054811 | 45 | 172 | 2.0 | 0.0 | 0.00 | 0.00 | 0.00 | 62 | 1008.4 |
| 20260503054355 | 45 | 229 | 2.0 | 1.0 | 0.00 | 0.00 | 0.00 | 62 | 1008.3 |
| 20260503054312 | 45 | 229 | 2.0 | 1.0 | 0.00 | 0.00 | 0.00 | 62 | 1008.3 |
| 20260503053812 | 45 | 174 | 2.0 | 2.0 | 0.00 | 0.00 | 0.00 | 61 | 1008.4 |
| 20260503053308 | 45 | 89 | 3.0 | 0.0 | 0.00 | 0.00 | 0.00 | 61 | 1008.4 |
| 20260503052805 | 45 | 188 | 2.0 | 2.0 | 0.00 | 0.00 | 0.00 | 60 | 1008.5 |
| 20260503052306 | 46 | 166 | 4.0 | 2.0 | 0.00 | 0.00 | 0.00 | 60 | 1008.6 |
| 20260503051801 | 46 | 145 | 2.0 | 0.0 | 0.00 | 0.00 | 0.00 | 60 | 1008.7 |
| 20260503051302 | 46 | 121 | 0.0 | 0.0 | 0.00 | 0.00 | 0.00 | 59 | 1008.7 |
| 20260503050800 | 46 | 143 | 2.0 | 5.0 | 0.00 | 0.00 | 0.00 | 59 | 1008.6 |
| 20260503050253 | 46 | 37 | 4.0 | 4.0 | 0.00 | 0.00 | 0.00 | 59 | 1008.7 |
| 20260503045753 | 46 | 191 | 3.0 | 3.0 | 0.00 | 0.00 | 0.00 | 58 | 1008.7 |
| 20260503045403 | 46 | 77 | 4.0 | 4.0 | 0.00 | 0.00 | 0.00 | 59 | 1008.7 |
| 20260503045254 | 46 | 77 | 4.0 | 4.0 | 0.00 | 0.00 | 0.00 | 59 | 1008.7 |
| 20260503044850 | 47 | 176 | 0.0 | 0.0 | 0.00 | 0.00 | 0.00 | 58 | 1008.7 |
| 20260503044750 | 47 | 176 | 0.0 | 0.0 | 0.00 | 0.00 | 0.00 | 58 | 1008.7 |
| 20260503044250 | 46 | 190 | 0.0 | 0.0 | 0.00 | 0.00 | 0.00 | 58 | 1008.8 |
| 20260503043751 | 47 | 108 | 2.0 | 4.0 | 0.00 | 0.00 | 0.00 | 58 | 1008.8 |
| 20260503042748 | 47 | 195 | 2.0 | 3.0 | 0.00 | 0.00 | 0.00 | 57 | 1008.9 |
| 20260503042245 | 47 | 121 | 4.0 | 1.0 | 0.00 | 0.00 | 0.00 | 57 | 1008.9 |
| 20260503041909 | 47 | 108 | 1.0 | 0.0 | 0.00 | 0.00 | 0.00 | 57 | 1009.1 |
| 20260503041740 | 47 | 108 | 1.0 | 0.0 | 0.00 | 0.00 | 0.00 | 57 | 1009.1 |
| 20260503041241 | 47 | 73 | 3.0 | 0.0 | 0.00 | 0.00 | 0.00 | 57 | 1009.1 |
| 20260503040235 | 47 | 152 | 3.0 | 1.0 | 0.00 | 0.00 | 0.00 | 57 | 1009.2 |